CAPE
0 0 0 0 0 0 0 0 22 3 5 0 0 0 0 0 0 0 0 0 1 19 320 423 223 134 45 12 9 6 13 12 18 7 15 20 18 50 58 89 19 0 0 19
0 0 0 0 0 3 0 0 0 0 0 3 0 0 0 0 0 0 0 1 0 11 315 366 235 134 20 7 9 2 5 12 10 7 5 10 2 13 29 11 1 0 0 6
0 0 0 0 0 0 2 0 3 1 0 1 1 0 0 0 0 0 0 0 0 2 243 411 198 133 129 2 6 5 5 17 7 1 2 2 0 1 1 2 3 4 0 4
0 0 0 0 0 2 4 0 0 0 0 0 2 0 1 0 0 0 0 0 0 0 3 445 298 63 157 40 11 16 8 3 3 1 0 2 0 0 3 2 5 7 8 32
0 0 0 0 0 0 1 0 0 0 0 1 0 0 0 0 0 0 0 0 0 0 18 374 366 87 88 138 10 11 11 9 13 1 5 0 3 3 3 5 8 16 57 65
0 0 0 0 0 1 0 1 0 0 1 3 0 2 2 0 0 1 0 0 0 0 114 309 415 107 71 67 2 0 6 2 10 4 4 2 0 3 11 13 6 9 23 48
0 0 0 0 0 0 5 21 42 42 54 22 10 14 2 0 0 0 0 0 0 0 174 376 425 204 84 62 6 6 3 5 12 9 3 0 0 0 0 15 34 7 18 41
0 2 0 0 0 0 28 0 78 31 37 39 34 13 2 0 0 0 0 0 0 11 257 421 436 303 180 163 115 7 5 5 7 8 18 12 17 3 0 15 49 19 38 116
63 28 0 0 0 0 0 54 27 38 23 8 1 6 5 0 0 0 0 0 0 23 280 437 448 408 224 233 146 68 31 8 10 7 8 11 13 22 2 0 12 73 70 84
42 2 24 0 0 0 0 3 67 70 16 19 10 8 32 11 0 0 1 1 0 0 186 410 464 504 329 225 171 93 66 50 10 9 4 6 12 18 17 33 43 66 77 47
0 51 89 9 4 2 0 1 7 34 44 50 40 21 4 22 0 0 12 7 19 1 117 366 501 536 425 277 180 137 92 52 37 21 10 15 12 15 15 31 49 41 51 64
1 3 58 40 70 23 52 1 16 87 22 18 74 30 0 2 0 0 37 28 32 0 71 252 512 551 508 306 194 170 117 68 70 45 20 9 12 11 12 15 24 47 50 55
21 4 12 18 43 64 65 102 112 59 61 27 90 22 24 11 21 0 1 27 41 9 197 278 508 603 590 422 267 182 88 66 29 44 68 40 25 12 8 12 44 38 36 32
0 0 15 61 19 1 84 68 112 108 95 92 65 36 8 3 7 0 0 7 0 71 49 263 439 589 619 575 419 272 114 46 28 17 28 42 39 31 48 49 28 145 69 32
48 39 9 4 0 0 0 0 0 0 26 57 46 47 57 62 27 2 0 0 0 21 40 132 327 489 622 622 569 434 322 130 50 50 46 55 49 77 41 40 41 19 20 16
51 77 58 43 15 0 0 0 0 0 0 5 34 33 25 3 0 0 0 0 0 0 9 47 114 331 434 518 585 505 431 364 219 157 120 85 77 73 77 85 86 41 24 17
94 68 71 74 27 5 15 0 0 0 0 0 4 4 16 34 21 0 0 0 0 7 3 23 60 131 294 546 499 537 491 494 354 265 209 159 134 112 103 92 71 93 81 45
66 53 59 54 40 29 0 6 13 10 1 0 0 0 32 34 17 0 0 0 0 11 35 36 22 45 85 410 588 548 538 508 457 356 263 228 189 152 129 69 0 1 1 1
27 60 77 40 38 0 0 0 30 52 43 61 107 95 128 139 62 2 13 0 11 24 4 0 15 9 9 124 488 589 624 583 457 364 296 232 241 25 1 2 2 2 1 1
22 41 94 56 34 20 6 56 36 103 79 115 48 35 100 107 233 107 147 55 41 27 18 15 41 77 61 105 289 501 424 28 1 2 2 0 0 0 1 1 1 2 1 4
130 105 61 69 58 29 1 0 17 58 72 44 16 45 11 55 63 80 136 12 2 0 0 0 3 42 4 0 0 1 1 2 1 0 0 0 0 1 1 1 1 1 2 1
113 132 84 43 56 53 7 30 43 66 25 20 13 41 48 4 0 101 0 1 3 2 2 2 5 4 1 1 0 0 1 0 0 0 0 1 0 0 1 1 1 1 1 1
59 85 82 51 56 8 24 69 57 3 0 18 13 19 6 1 1 0 3 6 3 0 0 0 0 0 0 0 0 0 2 1 0 0 0 1 0 1 1 1 2 2 1 2
41 43 41 61 51 60 46 54 0 0 1 2 22 12 24 20 16 1 3 3 2 1 0 0 0 0 0 0 0 0 1 0 0 0 0 1 0 1 1 1 3 6 5 7
25 37 70 47 34 51 26 23 10 4 16 2 17 0 38 54 31 5 1 0 0 0 0 0 0 0 0 0 0 1 0 0 0 0 1 2 3 4 4 5 7 5 3 7
29 37 63 60 26 18 28 22 5 4 3 16 8 108 24 13 0 0 1 4 1 1 1 0 0 0 0 1 0 0 0 0 0 1 3 7 10 11 7 7 14 5 4 2
CIN
-0 -0 -0 -0 -0 -0 -0 -0 -1 -0 -0 -0 -0 -0 -0 -0 -0 -0 -0 -0 -0 -40 -8 -80 -163 -195 -252 -0 -0 -0 -0 -0 -0 -0 -0 -11 -18 -0 -0 -1 -7 -0 -0 -24
-0 -0 -0 -0 -0 -0 -0 -0 -0 -0 -0 -0 -0 -0 -0 -0 -0 -0 -0 -0 -0 -0 -8 -101 -188 -229 -182 -0 -0 -0 -0 -0 -0 -0 -0 -0 -0 -1 -0 -5 -1 -0 -0 -19
-0 -0 -0 -0 -0 -0 -11 -0 -0 -0 -0 -0 -0 -0 -0 -0 -0 -0 -0 -0 -0 -0 -7 -77 -184 -243 -259 -1 -0 -0 -0 -2 -0 -0 -0 -0 -0 -28 -0 -0 -0 -0 -1 -27
-0 -0 -0 -0 -0 -0 -1 -0 -0 -0 -0 -0 -0 -0 -0 -0 -0 -0 -0 -0 -0 -0 -5 -47 -141 -268 -261 -257 -46 -219 -0 -0 -0 -0 -0 -15 -0 -0 -0 -0 -0 -0 -1 -3
-0 -0 -0 -0 -0 -0 -0 -0 -0 -0 -0 -0 -0 -0 -0 -0 -0 -0 -0 -0 -0 -0 -60 -50 -114 -213 -304 -286 -0 -0 -0 -0 -0 -0 -0 -0 -0 -0 -0 -0 -0 -11 -1 -4
-0 -0 -0 -0 -0 -0 -1 -3 -0 -0 -0 -0 -0 -0 -0 -0 -0 -0 -0 -0 -0 -0 -55 -66 -105 -160 -307 -365 -1 -0 -0 -0 -0 -0 -0 -0 -0 -0 -5 -24 -0 -13 -6 -1
-0 -0 -0 -0 -0 -0 -5 -0 -0 -0 -0 -0 -0 -0 -0 -0 -0 -0 -0 -0 -0 -0 -42 -69 -94 -147 -258 -383 -64 -0 -0 -0 -0 -0 -0 -0 -0 -0 -0 -9 -1 -1 -0 -0
-0 -0 -0 -0 -0 -0 -4 -0 -0 -0 -1 -0 -1 -1 -0 -0 -0 -0 -0 -0 -0 -82 -36 -60 -79 -125 -168 -283 -316 -0 -0 -0 -0 -0 -0 -0 -0 -0 -0 -0 -10 -5 -1 -0
-0 -2 -0 -0 -0 -0 -0 -0 -0 -0 -0 -1 -11 -1 -10 -0 -0 -0 -0 -0 -0 -42 -34 -62 -64 -119 -154 -226 -298 -356 -390 -0 -0 -0 -0 -0 -0 -0 -0 -0 -17 -0 -1 -0
-1 -0 -2 -0 -0 -0 -0 -1 -0 -0 -0 -0 -0 -0 -0 -1 -0 -0 -6 -2 -0 -0 -20 -49 -60 -101 -137 -215 -271 -330 -334 -337 -377 -0 -0 -0 -0 -0 -0 -48 -43 -45 -16 -0
-0 -0 -0 -6 -5 -3 -0 -6 -3 -1 -0 -0 -1 -0 -17 -5 -0 -0 -0 -0 -1 -0 -24 -36 -44 -77 -106 -193 -250 -318 -308 -320 -333 -341 -0 -284 -0 -0 -0 -0 -1 -0 -0 -0
-0 -1 -0 -0 -1 -15 -5 -1 -2 -0 -0 -1 -0 -0 -0 -10 -0 -0 -2 -2 -1 -0 -12 -33 -37 -66 -103 -169 -223 -288 -312 -294 -280 -301 -327 -124 -0 -0 -0 -0 -0 -67 -21 -0
-3 -0 -0 -0 -3 -4 -11 -1 -0 -1 -0 -0 -0 -0 -0 -2 -1 -7 -24 -1 -1 -20 -19 -42 -46 -58 -94 -147 -201 -242 -335 -308 -305 -275 -242 -236 -222 -42 -0 -0 -107 -93 -87 -50
-0 -0 -0 -0 -30 -24 -2 -5 -1 -0 -0 -0 -0 -0 -9 -6 -6 -0 -1 -6 -3 -5 -11 -21 -40 -51 -81 -104 -166 -209 -336 -395 -338 -321 -290 -233 -201 -176 -130 -110 -111 -64 -70 -83
-0 -3 -0 -0 -0 -0 -0 -0 -0 -0 -0 -1 -0 -1 -0 -0 -4 -56 -0 -0 -5 -1 -8 -16 -22 -43 -62 -82 -123 -160 -218 -357 -353 -303 -281 -245 -207 -159 -146 -117 -95 -19 -92 -91
-0 -0 -0 -0 -0 -0 -0 -0 -0 -0 -0 -0 -0 -0 -0 -1 -0 -0 -0 -0 -0 -0 -7 -0 -13 -24 -51 -61 -92 -128 -163 -224 -276 -255 -236 -218 -209 -185 -167 -140 -116 -127 -60 -0
-1 -0 -0 -0 -0 -0 -0 -0 -0 -0 -0 -0 -0 -0 -1 -1 -0 -0 -0 -0 -0 -16 -10 -1 -3 -12 -30 -45 -89 -102 -146 -164 -222 -206 -188 -195 -199 -188 -158 -140 -134 -110 -99 -57
-0 -0 -0 -0 -5 -0 -0 -0 -0 -0 -0 -0 -0 -0 -0 -0 -0 -0 -0 -0 -0 -13 -4 -2 -9 -20 -37 -39 -76 -116 -132 -153 -204 -192 -170 -166 -164 -151 -143 -168 -7 -0 -0 -0
-0 -0 -0 -0 -0 -0 -1 -0 -0 -0 -0 -1 -0 -1 -16 -0 -2 -0 -1 -0 -0 -7 -6 -0 -118 -66 -116 -82 -92 -103 -129 -141 -160 -157 -147 -163 -153 -28 -0 -0 -0 -0 -0 -0
-0 -0 -0 -0 -0 -0 -1 -5 -61 -2 -0 -0 -0 -4 -0 -0 -0 -0 -7 -7 -85 -109 -135 -176 -205 -231 -269 -196 -185 -145 -179 -425 -0 -0 -0 -0 -0 -0 -0 -0 -0 -0 -0 -0
-0 -0 -0 -0 -0 -0 -0 -0 -5 -0 -8 -4 -2 -0 -2 -0 -9 -41 -18 -168 -81 -0 -0 -0 -234 -218 -235 -0 -0 -0 -0 -0 -0 -0 -0 -0 -0 -0 -0 -0 -0 -0 -0 -0
-0 -0 -0 -0 -0 -0 -1 -0 -0 -0 -28 -12 -6 -1 -4 -14 -0 -6 -0 -0 -0 -0 -0 -0 -0 -0 -0 -0 -0 -0 -0 -0 -0 -0 -0 -0 -0 -0 -0 -0 -0 -0 -0 -0
-0 -0 -0 -0 -0 -3 -0 -0 -14 -0 -0 -1 -0 -13 -12 -12 -0 -0 -0 -0 -0 -0 -0 -0 -0 -0 -0 -0 -0 -0 -0 -0 -0 -0 -0 -0 -0 -0 -0 -0 -0 -0 -0 -0
-1 -2 -0 -0 -0 -0 -0 -4 -0 -0 -1 -0 -0 -0 -16 -8 -9 -0 -0 -0 -0 -0 -0 -0 -0 -0 -0 -0 -0 -0 -0 -0 -0 -0 -0 -0 -0 -0 -0 -0 -0 -0 -0 -0
-0 -3 -0 -0 -0 -0 -1 -0 -17 -8 -0 -1 -12 -2 -21 -63 -5 -0 -0 -0 -0 -0 -0 -0 -0 -0 -0 -0 -0 -0 -0 -0 -0 -0 -0 -0 -0 -0 -0 -0 -0 -0 -0 -0
-0 -0 -0 -0 -1 -1 -0 -0 -3 -6 -10 -4 -57 -4 -16 -0 -0 -0 -0 -0 -0 -0 -0 -0 -0 -0 -0 -0 -0 -0 -0 -0 -0 -0 -0 -0 -0 -0 -0 -0 -0 -0 -0 -0
Wind_Speed
16 14 19 23 22 23 25 26 24 17 13 10 15 18 18 16 19 16 15 13 11 9 8 10 9 9 10 10 10 9 8 8 5 2 1 2 12 13 12 14 18 17 14 13
12 23 17 22 24 25 26 28 26 19 21 15 17 19 21 20 18 19 18 14 12 10 10 11 11 11 11 12 11 10 8 8 5 3 1 2 2 11 10 10 16 16 16 16
22 20 16 19 21 23 25 26 23 24 21 23 15 22 22 22 24 21 21 13 14 10 14 14 13 12 13 13 13 12 11 10 7 6 5 3 6 9 9 10 10 13 15 13
23 22 24 13 16 21 23 20 21 23 21 18 19 19 18 14 14 18 16 17 16 13 10 15 15 14 14 13 13 12 12 11 8 8 6 6 2 5 5 8 8 12 14 15
19 15 20 25 21 17 21 17 17 19 20 20 22 17 13 16 16 19 14 16 15 12 11 15 15 15 14 14 12 11 12 11 13 7 10 7 7 5 7 7 11 10 10 13
24 16 13 13 17 20 17 14 17 18 15 18 19 19 16 16 15 13 10 5 5 11 12 15 15 14 14 12 12 12 13 12 12 10 8 8 11 10 9 10 8 8 8 8
19 25 23 17 15 13 14 15 11 13 13 13 17 17 16 11 15 5 6 6 11 11 13 15 17 16 16 17 15 13 14 13 13 12 12 11 11 12 10 10 10 12 10 9
14 12 19 23 24 17 17 18 12 15 10 11 17 11 15 15 18 15 10 5 7 10 13 17 18 16 16 18 18 15 15 15 15 14 14 15 14 10 8 9 9 7 10 11
7 11 3 13 22 19 19 19 21 21 18 12 7 10 16 4 8 8 8 11 11 12 13 17 19 17 16 17 17 18 18 16 16 15 12 14 14 13 12 13 11 10 10 10
1 9 6 4 11 18 22 14 16 15 18 20 17 18 10 11 10 12 11 9 11 11 13 16 18 18 16 16 16 15 16 18 18 17 14 14 15 15 15 14 15 14 12 13
13 10 9 3 10 13 13 18 17 13 15 15 12 10 10 8 10 5 9 9 8 6 12 15 17 18 16 16 16 16 15 17 17 17 16 14 15 14 14 13 13 12 13 13
9 7 11 14 12 7 13 17 22 12 16 11 14 13 4 4 4 2 11 6 3 6 8 14 17 18 18 17 17 17 16 16 16 17 17 17 16 16 15 14 14 13 14 13
8 8 10 15 17 16 10 13 12 12 15 19 14 9 11 19 9 6 8 15 4 2 7 12 15 18 18 17 17 17 16 16 15 15 16 17 17 17 17 17 14 14 14 14
5 11 14 14 8 8 6 10 8 9 11 13 16 19 18 14 12 12 9 12 17 6 6 11 14 16 17 18 17 17 17 16 16 16 16 16 17 16 16 15 16 15 15 16
12 16 16 18 23 17 15 18 15 17 16 15 15 17 15 14 12 14 17 14 17 8 6 9 12 14 16 17 17 17 17 18 17 17 17 17 15 14 14 14 14 14 15 14
16 15 16 19 19 21 23 23 22 22 20 20 19 21 16 19 20 25 19 17 16 17 12 9 12 14 14 15 15 16 17 18 18 18 17 16 15 15 15 14 14 13 14 13
4 8 11 14 16 21 21 23 24 25 24 20 20 19 16 17 19 21 25 22 20 16 15 13 11 13 12 13 13 15 15 15 17 16 16 15 15 15 14 13 13 12 11 5
10 11 6 7 9 13 13 14 12 14 17 21 22 22 15 19 21 23 21 21 22 17 11 8 7 3 7 11 13 12 13 13 14 14 14 14 13 13 13 8 10 13 12 13
19 14 6 7 10 15 17 12 13 10 10 8 8 7 14 19 17 21 18 20 20 5 6 5 6 2 5 6 12 14 14 13 12 12 12 12 10 12 14 15 14 13 14 14
20 17 12 7 10 11 8 11 12 15 10 15 14 11 13 13 11 9 15 9 4 5 4 1 3 7 7 6 7 11 10 14 13 14 13 14 15 16 16 15 15 14 14 14
16 12 15 13 10 9 14 16 12 10 5 17 17 15 12 12 10 24 11 11 9 6 6 7 6 10 12 13 15 15 16 15 13 16 16 15 16 17 16 16 13 14 15 14
8 9 8 10 6 10 4 7 6 9 12 16 19 19 11 9 17 9 9 6 3 6 7 8 10 12 13 15 15 15 17 13 15 19 19 15 15 13 13 16 14 14 14 14
6 9 5 7 4 3 9 6 4 8 13 20 18 22 5 13 16 4 4 5 6 9 9 11 12 14 14 14 14 17 14 13 16 22 20 15 16 15 16 15 13 12 11 10
9 7 4 6 6 6 9 4 3 7 18 21 20 19 7 13 7 6 7 7 6 7 9 11 14 15 15 15 15 16 15 15 18 21 20 13 16 16 15 13 10 10 9 8
6 6 8 9 8 10 3 4 7 15 16 17 11 18 15 13 8 6 9 9 9 8 8 10 13 12 15 15 16 14 16 16 18 21 17 15 15 16 15 16 13 12 14 11
11 11 9 7 9 8 11 11 10 13 15 10 10 8 6 5 7 7 9 8 8 10 7 9 13 13 15 15 15 14 15 16 18 18 13 11 11 12 13 14 16 29 26 28
Wind_Direction
192 221 223 237 229 252 266 270 263 284 255 265 256 264 269 264 264 259 246 253 246 224 192 162 175 170 150 161 164 160 189 170 185 186 242 223 201 195 181 161 155 154 155 171
230 241 239 243 239 238 247 260 264 267 276 268 251 263 274 266 263 258 265 268 236 233 173 172 170 178 170 172 166 158 185 177 166 134 359 326 46 162 149 133 148 148 156 154
237 249 219 233 262 244 248 252 261 266 267 272 270 263 263 258 251 252 256 260 269 239 183 181 183 184 173 177 173 170 176 174 164 132 120 69 50 97 119 126 141 141 151 154
260 253 270 223 235 258 254 252 261 264 264 262 252 265 270 260 264 227 230 227 226 239 214 177 183 187 179 181 178 177 171 170 164 162 135 137 100 104 104 120 118 142 152 174
242 230 252 243 226 249 266 275 259 264 254 262 255 261 257 257 256 251 241 244 241 205 196 184 187 182 176 171 180 171 165 171 168 184 157 142 136 111 123 125 128 138 155 173
251 253 258 271 262 238 255 265 252 256 249 248 247 253 252 251 236 225 240 219 288 182 182 184 179 169 171 164 179 176 162 173 168 168 162 156 154 147 145 155 158 159 162 169
234 240 242 248 251 231 248 232 248 226 227 243 241 228 240 253 253 232 221 235 179 180 185 183 178 174 173 168 176 178 168 171 172 174 165 162 168 161 161 157 173 171 173 177
272 251 213 217 228 226 212 214 252 238 244 283 271 231 246 233 244 258 236 228 234 186 184 188 182 182 176 173 171 180 178 170 176 188 182 177 177 171 168 179 169 178 185 182
320 254 60 219 223 229 225 219 225 257 280 263 251 257 270 168 242 248 210 218 207 194 188 191 184 183 181 179 179 176 174 175 175 188 183 179 187 182 178 181 182 187 187 184
354 278 233 118 221 222 240 252 219 224 247 251 257 253 234 200 206 239 231 217 230 192 191 191 188 181 182 181 177 185 181 176 176 182 189 189 195 184 190 187 195 189 190 193
300 263 250 249 227 218 208 237 254 251 231 243 255 273 345 198 159 305 314 324 246 202 192 193 189 178 184 176 178 184 192 181 181 183 187 195 198 194 197 202 191 196 199 197
299 298 264 258 277 315 311 227 225 237 242 247 248 254 325 322 100 239 312 311 12 283 206 193 188 177 182 181 184 184 191 194 185 184 185 193 199 201 198 205 207 205 206 209
23 240 256 239 238 230 246 242 250 237 248 256 260 245 275 218 269 308 310 304 317 208 184 188 188 184 187 187 189 186 190 196 192 191 190 191 197 202 205 205 207 204 210 213
317 261 277 273 7 334 263 247 263 266 251 248 246 259 256 275 282 291 288 292 300 191 183 192 190 194 192 191 190 191 189 198 194 195 198 198 198 204 207 209 207 209 209 215
237 252 254 260 282 281 268 274 263 258 261 256 266 282 293 307 302 285 281 286 293 284 223 204 199 197 197 195 193 194 189 189 195 197 200 200 199 201 209 210 212 212 216 220
239 257 265 264 266 276 279 270 260 257 259 264 263 263 274 274 274 281 278 283 276 274 272 221 197 202 199 196 197 197 197 189 190 198 199 196 193 199 202 203 207 212 219 222
323 244 245 250 247 254 253 252 261 266 260 252 249 257 273 291 278 253 268 269 272 276 263 249 264 193 201 194 192 193 197 190 188 197 196 195 193 196 199 202 204 207 207 202
242 245 256 269 291 242 250 264 243 275 266 259 258 262 266 278 268 262 249 254 258 254 252 264 266 251 191 181 175 188 186 186 182 190 191 188 190 190 191 177 87 76 71 72
225 225 226 224 237 267 296 285 300 288 283 293 295 315 340 324 310 251 256 241 248 320 350 319 327 309 174 190 168 177 171 169 173 177 180 176 168 100 90 85 84 82 83 76
205 210 230 223 247 240 266 43 9 305 250 14 10 352 320 320 301 269 314 303 54 51 32 255 90 108 125 122 162 161 118 92 88 85 74 77 87 90 88 86 84 85 84 86
182 195 214 228 245 268 279 304 348 256 15 339 332 325 321 309 306 298 5 349 13 44 64 60 72 87 73 72 82 91 89 86 95 88 80 75 79 87 89 91 89 93 91 87
165 192 191 230 249 253 296 312 292 349 333 321 323 318 321 307 306 333 5 332 23 80 89 103 108 97 92 96 99 93 89 100 98 92 83 83 87 90 91 93 93 92 94 93
208 220 190 204 219 256 308 42 47 338 327 306 316 320 337 313 297 80 64 56 66 80 76 81 87 79 79 87 98 100 100 102 99 91 91 85 88 89 95 88 89 90 89 92
272 259 252 293 294 269 268 145 21 319 270 279 298 320 338 292 261 140 117 91 78 83 95 97 93 87 86 89 91 95 104 102 99 93 90 90 91 89 80 78 73 82 88 92
293 321 297 272 279 316 314 213 189 241 262 283 338 312 313 302 170 157 116 102 91 81 86 97 94 93 95 100 98 98 102 104 94 94 95 91 82 75 76 69 70 68 53 67
274 270 270 285 307 288 307 334 328 306 292 346 324 319 14 337 99 94 87 80 87 91 76 92 96 97 96 93 99 108 103 105 105 99 100 94 96 92 84 85 84 74 75 72